BEIDOU-3 G1 (PRN 130)

Last updated on Thu Nov 21 2024 00:03:19 GMT+0000 (Coordinated Universal Time)

1 43683U 18085A 24325.32303683 -.00000276 00000+0 00000+0 0 9994 2 43683 2.5777 104.0160 0001591 60.7185 151.4563 1.00271455 22306
UTC large
Height (km)
Speed (km/s)
/
Latitude / Longitude
Inclination (degrees)
Orbital Period (minutes)
Azimuth
Elevation
Range (km)
Doppler Factor

Next 0 passes for location: London (51.5072 / 0.1276)

Sorry there are no passes over London.